sat.trackr.live / text

‹ back to catalog

STARLINK-5097

NORAD 53995 · 2022-125AH

PAYLOAD ACTIVE UNKNOWN

§ Identity

Operator
Country
US
Launch date
2022-10-05
Launch site
AFWTR
Launch vehicle
Mass (kg)
RCS (m²)

Purposes: comms

External: N2YO · Heavens-Above · Gunter

§ Orbital elements

Epoch: 2026-05-24T22:26:57.355584Z

Period
95.44 min
Inclination
53.2124°
Eccentricity
0.0001560
Mean motion
15.08827509 rev/d
Perigee alt
538.7 km
Apogee alt
540.9 km
Semi-major
6,917.9 km
B*
1.2286e-4
RAAN
231.8011°
Arg perigee
89.6730°
Mean anomaly
270.4441°
Rev number
20,096

§ Raw data

STARLINK-50971 53995U 22125AH  26144.93538606  .00001667  00000+0  12286-3 0  99912 53995  53.2124 231.8011 0001560  89.6730 270.4441 15.08827509200965

JSON: /api/v1/satellites/53995 · /tle

For live sub-satellite position, see the globe view (requires WebGL).

§ Visibility from observer

Set your observer location to see the next 7 days of passes ≥ 10°. The values pass through the URL so the page stays shareable.

No JS? Fill the form by hand. The geolocation button needs JavaScript.